Satellite-Ground Cal/Val Region Overpasses Predictions

Prediction of Satellite NPP Overpassing Cal/Val Region: PacNW

Region Location: (Latitude: 10.00, Longitude: 139.50) to (Latitude: 22.70, Longitude: 165.60).

Table of predicted overpasses for the next 14.0 days since TLE Epoch: 1/20/2024
Interval Starting Time Starting Location Ending Time Ending Location
1 01/20/2024 15:11:50 ( 22.68, 157.05) 01/20/2024 15:15:25 ( 10.06, 154.05)
2 01/21/2024 02:20:56 ( 10.06, 164.57) 01/21/2024 02:24:31 ( 22.68, 161.57)
3 01/21/2024 14:52:49 ( 22.67, 161.81) 01/21/2024 14:56:24 ( 10.05, 158.80)
4 01/22/2024 03:43:24 ( 10.02, 143.96) 01/22/2024 03:47:00 ( 22.70, 140.94)
5 01/22/2024 14:34:54 ( 18.73, 165.59) 01/22/2024 14:37:22 ( 10.04, 163.56)
6 01/22/2024 16:15:17 ( 22.65, 141.18) 01/22/2024 16:17:15 ( 15.73, 139.50)
7 01/23/2024 03:24:22 ( 10.03, 148.71) 01/23/2024 03:27:57 ( 22.65, 145.71)
8 01/23/2024 15:56:15 ( 22.70, 145.95) 01/23/2024 15:59:51 ( 10.02, 142.94)
9 01/24/2024 03:05:21 ( 10.04, 153.47) 01/24/2024 03:08:56 ( 22.67, 150.47)
10 01/24/2024 15:37:13 ( 22.68, 150.71) 01/24/2024 15:40:49 ( 10.00, 147.69)
11 01/25/2024 02:46:18 ( 10.00, 158.23) 01/25/2024 02:49:54 ( 22.68, 155.22)
12 01/25/2024 15:18:12 ( 22.67, 155.46) 01/25/2024 15:21:47 ( 10.05, 152.46)
13 01/26/2024 02:27:17 ( 10.02, 162.99) 01/26/2024 02:30:53 ( 22.70, 159.97)
14 01/26/2024 14:59:11 ( 22.65, 160.21) 01/26/2024 15:02:46 ( 10.03, 157.21)
15 01/27/2024 02:10:51 ( 19.20, 165.59) 01/27/2024 02:11:50 ( 22.66, 164.74)
16 01/27/2024 03:49:45 ( 10.04, 142.36) 01/27/2024 03:53:10 ( 22.08, 139.51)
17 01/27/2024 14:40:08 ( 22.69, 164.98) 01/27/2024 14:43:44 ( 10.01, 161.96)
18 01/27/2024 16:21:38 ( 22.68, 139.60) 01/27/2024 16:21:45 ( 22.27, 139.50)
19 01/28/2024 03:30:43 ( 10.00, 147.13) 01/28/2024 03:34:19 ( 22.69, 144.11)
20 01/28/2024 16:02:37 ( 22.66, 144.36) 01/28/2024 16:06:12 ( 10.04, 141.35)
21 01/29/2024 03:11:41 ( 10.03, 151.88) 01/29/2024 03:15:16 ( 22.65, 148.88)
22 01/29/2024 15:43:34 ( 22.70, 149.12) 01/29/2024 15:47:10 ( 10.02, 146.11)
23 01/30/2024 02:52:40 ( 10.05, 156.63) 01/30/2024 02:56:15 ( 22.67, 153.63)
24 01/30/2024 15:24:33 ( 22.67, 153.87) 01/30/2024 15:28:08 ( 10.06, 150.87)
25 01/31/2024 02:33:37 ( 10.02, 161.40) 01/31/2024 02:37:13 ( 22.70, 158.38)
26 01/31/2024 15:05:31 ( 22.65, 158.62) 01/31/2024 15:09:06 ( 10.03, 155.62)
27 02/01/2024 02:15:17 ( 12.45, 165.60) 02/01/2024 02:18:11 ( 22.67, 163.15)
28 02/01/2024 03:56:06 ( 10.05, 140.78) 02/01/2024 03:57:39 ( 15.51, 139.51)
29 02/01/2024 14:46:29 ( 22.68, 163.39) 02/01/2024 14:50:05 ( 10.00, 160.37)
30 02/02/2024 03:37:03 ( 10.02, 145.54) 02/02/2024 03:40:38 ( 22.64, 142.54)
31 02/02/2024 14:30:28 ( 12.03, 165.60) 02/02/2024 14:31:02 ( 10.04, 165.14)
32 02/02/2024 16:08:57 ( 22.65, 142.76) 02/02/2024 16:12:32 ( 10.03, 139.76)
